Погода в Таласи

Папуа-Новая Гвинея     5°18′58″S   150°01′48″E
темп.,
°C
ветер,
м/с
пор.,
м/с
влажн.,
%
обл.,
%
осадки,
мм/ч
давл.,
гПа
погр.,
м
13 мая, чт
чт1301:00+26вюв228586 1.9 1010357
04:00+25вюв2286100 4.4 1009199
07:00+26вюв238480 1.3 1010413
10:00+28вюв227497 1.3 1010680
13:00+29св327110 0.0 1007755
16:00+29с33734 0.0 1006590
19:00+27ссз12783 0.1 1008364
22:00+27ююв01797 0.1 1010416
14 мая, пт
пт1401:00+26ююв118210 0.1 1008272
04:00+26ююв118411 0.4 1007241
07:00+26ююв228411 0.1 1009329
10:00+29св11726 0.1 1010616
13:00+28с22765 0.3 1007514
16:00+29сз227445 0.8 1006393
19:00+27ююз12785 0.1 1008266
22:00+27ююз22825 0.3 1009148
15 мая, сб
сб1501:00+26юз11824 0.3 1008153
04:00+26юв21844 0.4 1007176
07:00+26юв22830 0.2 1009239
10:00+29вюв23680 0.2 1009597
13:00+30ссв226410 0.0 1006686
16:00+29с337099 0.0 1005500
19:00+28св127757 0.1 1007320
22:00+27юв12788 0.1 1008356
16 мая, вс
вс1601:00+27юв22835 0.2 1007259
04:00+26ю228414 0.2 1007184
07:00+26ю228014 0.1 1009178
10:00+29юв1265100 0.1 1009591
13:00+30ссз326587 0.0 1006725
16:00+29зсз237499 0.3 1006333
19:00+28ссз117598 0.4 1007207
22:00+27юв237769 0.4 1009377
17 мая, пн
пн1701:00+26ююв34835 0.0 1008240
04:00+26ююв338361 0.0 1007223
07:00+26ю228265 0.0 1009180
10:00+29юв136590 0.0 1009577
13:00+30ссз3165100 0.0 1007665
16:00+29зсз227088 0.3 1006365
19:00+28ссз117396 0.3 1008255
22:00+27юв117593 0.3 1009316